Miscellaneous Local Product
Issued by NWS North Platte, NE

Home | Current Version | Previous Version | Graphics & Text | Print | Product List | Glossary On
Versions: 1 2 3 4 5 6 7 8 9 10 11 12 13 14 15 16 17 18 19 20 21 22 23 24 25 26 27 28 29 30 31 32 33 34 35 36 37 38 39 40 41 42 43 44 45 46 47 48 49 50
000
AXUS43 KLBF 271010
MISLBF


WESTERN AND NORTH CENTRAL NEBRASKA HOURLY WEATHER ROUNDUP
NATIONAL WEATHER SERVICE NORTH PLATTE NE
500 AM CDT FRI MAR 27 2015

***STATIONS NOT REPORTING VARIABLES SUCH AS SKY/WEATHER OR
PRESSURE ARE PROVIDED BY THE NEBRASKA DEPARTMENT OF
ROADS...RAWS...AND APRS NETWORKS...AND ARE NOT UNDER
NATIONAL WEATHER SERVICE QUALITY CONTROL***

...OBSERVATIONS IN AND NEAR THE EASTERN PANHANDLE OF NEBRASKA...

CITY           SKY/WX    TMP DP  RH WIND       PRES   REMARKS
PINE RIDGE     CLOUDY    36  32  85 S8        30.12F WCI  30
CHADRON        CLOUDY    39  31  72 S6        30.10F WCI  35
ALLIANCE       CLOUDY    36  32  85 S9        30.14F WCI  29
SIDNEY         CLOUDY    37  30  75 E3        30.16F
WHITECLAY        N/A     33  31  92 SE8         N/A  WCI  26
CRESCENT LAKE    N/A     33  30  90 S7          N/A  WCI  27
BIG SPRINGS      N/A     34  31  90 E6          N/A  WCI  29
$$

...OBSERVATIONS IN NORTH CENTRAL NEBRASKA...

CITY           SKY/WX    TMP DP  RH WIND       PRES   REMARKS
VALENTINE      CLOUDY    32  26  78 S5        30.20F WCI  27
THEDFORD       CLOUDY    33  28  84 SW7       30.22S WCI  26
AINSWORTH      CLOUDY    30  28  92 CALM      30.22S
O`NEILL        PTCLDY    22  20  92 CALM      30.25S
ORD            MOCLDY    27  22  81 CALM      30.24S
BROKEN BOW     CLOUDY    32  26  78 CALM      30.23R
BROWNLEE         N/A     32  30  93 S7          N/A  WCI  26
SPRINGVIEW       N/A     28  24  86 E3          N/A
BREWSTER         N/A     32  28  85 CALM        N/A
ROSE             N/A     30  30 100 MISG        N/A
NEWPORT          N/A     29  27  92 SE3         N/A
SARGENT          N/A     30  26  84 CALM        N/A
COMSTOCK         N/A     34  29  80 CALM        N/A
EWING            N/A     20  17  89 CALM        N/A
$$

...OBSERVATIONS IN SOUTHWEST NEBRASKA AND FAR NORTHEAST COLORADO...

CITY           SKY/WX    TMP DP  RH WIND       PRES   REMARKS
WRAY           PTSUNNY   35  31  84 E9        30.18F WCI  28
IMPERIAL       FLURRIES  32  30  92 SE6       30.20S WCI  26
OGALLALA       FLURRIES  32  31  96 CALM      30.20S
NORTH PLATTE   CLOUDY    30  28  92 E5        30.22F WCI  25
MCCOOK         LGT SNOW  32  30  92 E3        30.23F FOG
LEXINGTON      CLOUDY    33  27  76 CALM      30.25R
PAXTON           N/A     33  29  86 CALM        N/A
SUTHERLAND       N/A     26  25  96 E3          N/A
BRADY            N/A     30  26  85 CALM        N/A
GOTHENBURG       N/A     33  25  73 CALM        N/A
CALLAWAY         N/A     30  26  83 CALM        N/A
$$

...NORTH PLATTE AREA...

CITY           SKY/WX    TMP DP  RH WIND       PRES   REMARKS
AIRPORT        CLOUDY    30  28  92 E5        30.22F WCI  25
DOWNTOWN         N/A     30  28  90 CALM        N/A
$$

...SOME WEATHER OBSERVATIONS FROM AROUND THE REGION...

CITY           SKY/WX    TMP DP  RH WIND       PRES   REMARKS
DENVER         CLOUDY    43  32  65 SW10      30.16S
LARAMIE        CLOUDY    36  27  69 W7        30.21F WCI  30
CHEYENNE       CLOUDY    48  28  46 W14G21    30.14F
SCOTTSBLUFF    CLOUDY    37  34  89 E12       30.15F WCI  29
RAPID CITY     CLOUDY    33  28  81 SE7       30.08F WCI  27
PIERRE         CLOUDY    26  18  71 SE9       30.22S WCI  17
WINNER         CLOUDY    28  20  71 SE9       30.23S WCI  19
SIOUX FALLS    PTCLDY    15  10  80 CALM      30.25F
OMAHA          PTCLDY    25  18  74 N7        30.25R WCI  17
GRAND ISLAND   PTCLDY    24  21  88 NW6       30.27R WCI  17
KANSAS CITY    CLOUDY    34  30  85 N12       30.17R WCI  25
WICHITA        CLOUDY    40  34  79 N14G21    30.17R WCI  32
HAYS           CLOUDY    36  25  64 N13       30.24R WCI  27
LIBERAL        MOCLDY    45  30  57 NE6       30.18S
GOODLAND       MOCLDY    31  27  85 E5        30.19R WCI  26
$$



USA.gov is the U.S. government's official web portal to all federal, state and local government web resources and services.